This demonstration page uses our WeatherBlox Daily Observations layout. Learn more.

Left ArrowRight Arrow

Hourly Observations for August 31, 2018

Temp ( °F °C ) Dew Point ( °F °C ) Humidity (%) Winds ( mph kmh ) Pressure ( in mb ) Visibility ( mi km ) Precip ( " mm )
12:15 am 00:15 Clear 61 16 61 16 100 100 Calm 30.15 1021 10 16.0934 N/A
12:16 am 00:16 Clear 61 16 61 16 100 100 Calm 30.15 1021 10 16.0934 N/A
12:35 am 00:35 Clear 61 16 61 16 100 100 Calm 30.15 1021 10 16.0934 N/A
12:55 am 00:55 Clear 61 16 61 16 100 100 Calm 30.15 1021 10 16.0934 N/A
12:56 am 00:56 Clear 61 16 61 16 100 100 Calm 30.15 1021 10 16.0934 N/A
1:15 am 01:15 Clear 61 16 61 16 100 100 Calm 30.15 1021 10 16.0934 N/A
1:16 am 01:16 Clear 61 16 61 16 100 100 Calm 30.15 1021 10 16.0934 N/A
1:35 am 01:35 Clear 61 16 61 16 100 100 Calm 30.15 1021 7 11.26538 N/A
1:56 am 01:56 Clear 59 15 59 15 100 100 Calm 30.15 1021 10 16.0934 N/A
2:15 am 02:15 Clear 59 15 59 15 100 100 Calm 30.15 1021 10 16.0934 N/A
2:35 am 02:35 Clear 59 15 59 15 100 100 Calm 30.12 1020 10 16.0934 N/A
2:36 am 02:36 Clear 59 15 59 15 100 100 Calm 30.12 1020 10 16.0934 N/A
2:56 am 02:56 Clear 59 15 59 15 100 100 Calm 30.12 1020 10 16.0934 N/A
3:15 am 03:15 Clear 59 15 59 15 100 100 Calm 30.15 1021 10 16.0934 N/A
3:36 am 03:36 Clear 57 14 57 14 100 100 Calm 30.15 1021 7 11.26538 N/A
3:55 am 03:55 Clear 59 15 59 15 100 100 Calm 30.15 1021 10 16.0934 N/A
3:56 am 03:56 Clear 59 15 59 15 100 100 Calm 30.15 1021 10 16.0934 N/A
4:15 am 04:15 Clear 57 14 57 14 100 100 Calm 30.15 1021 7 11.26538 N/A
4:36 am 04:36 Clear 57 14 57 14 100 100 Calm 30.12 1020 10 16.0934 N/A
4:55 am 04:55 Clear 57 14 57 14 100 100 Calm 30.12 1020 7 11.26538 N/A
4:56 am 04:56 Clear 57 14 57 14 100 100 Calm 30.12 1020 7 11.26538 N/A
5:15 am 05:15 Clear 59 15 59 15 100 100 Calm 30.15 1021 10 16.0934 N/A
5:35 am 05:35 Clear 59 15 59 15 100 100 ESE 3 6 30.12 1020 7 11.26538 N/A
5:36 am 05:36 Clear 59 15 59 15 100 100 ESE 3 6 30.12 1020 7 11.26538 N/A
5:55 am 05:55 Clear 59 15 59 15 100 100 SE 3 6 30.12 1020 7 11.26538 N/A
6:16 am 06:16 Clear 61 16 61 16 100 100 SE 3 6 30.12 1020 7 11.26538 N/A
6:35 am 06:35 Clear 59 15 59 15 100 100 Calm 30.15 1021 7 11.26538 N/A
6:36 am 06:36 Clear 59 15 59 15 100 100 Calm 30.15 1021 7 11.26538 N/A
6:55 am 06:55 Clear 61 16 61 16 100 100 Calm 30.15 1021 7 11.26538 N/A
7:16 am 07:16 Sunny 57 14 57 14 100 100 Calm 30.15 1021 7 11.26538 N/A
7:35 am 07:35 Sunny 59 15 59 15 100 100 Calm 30.15 1021 4 6.43736 N/A
7:36 am 07:36 Sunny 59 15 59 15 100 100 Calm 30.15 1021 4 6.43736 N/A
7:55 am 07:55 Sunny 63 17 63 17 100 100 Calm 30.15 1021 5 8.0467 N/A
8:16 am 08:16 Sunny 63 17 63 17 100 100 Calm 30.15 1021 5 8.0467 N/A
8:36 am 08:36 Sunny 66 19 66 19 100 100 Calm 30.15 1021 5 8.0467 N/A
8:55 am 08:55 Sunny 68 20 68 20 100 100 ESE 3 6 30.15 1021 7 11.26538 N/A
9:16 am 09:16 Sunny 70 21 70 21 100 100 SE 5 7 30.12 1020 10 16.0934 N/A
9:35 am 09:35 Sunny 70 21 70 21 100 100 SSE 6 9 30.15 1021 10 16.0934 N/A
9:36 am 09:36 Sunny 70 21 70 21 100 100 SE 6 9 30.15 1021 10 16.0934 N/A
9:55 am 09:55 Sunny 72 22 72 22 100 100 SSE 6 9 30.15 1021 10 16.0934 N/A
10:16 am 10:16 Sunny 73 23 72 22 94 94 Calm 30.12 1020 10 16.0934 N/A
10:35 am 10:35 Sunny 75 24 72 22 89 89 Calm 30.12 1020 10 16.0934 N/A
10:55 am 10:55 Sunny 77 25 72 22 83 83 Calm 30.12 1020 10 16.0934 N/A
11:16 am 11:16 Sunny 77 25 72 22 83 83 Calm 30.12 1020 10 16.0934 N/A
11:35 am 11:35 Sunny 79 26 73 23 84 84 S 7 11 30.12 1020 10 16.0934 N/A
11:55 am 11:55 Sunny 79 26 73 23 84 84 S 8 13 30.12 1020 10 16.0934 N/A
11:56 am 11:56 Sunny 79 26 73 23 84 84 S 8 13 30.12 1020 10 16.0934 N/A
12:16 pm 12:16 Sunny 81 27 73 23 79 79 S 6 9 30.12 1020 10 16.0934 N/A
12:35 pm 12:35 Sunny 81 27 73 23 79 79 S 5 7 30.12 1020 10 16.0934 N/A
12:55 pm 12:55 Partly Cloudy 82 28 73 23 74 74 Calm 30.12 1020 10 16.0934 N/A
12:56 pm 12:56 Partly Cloudy 81 27 73 23 79 79 S 3 6 30.12 1020 10 16.0934 N/A
1:16 pm 13:16 Partly Cloudy 82 28 73 23 74 74 SW 6 9 30.12 1020 10 16.0934 N/A
1:35 pm 13:35 Partly Cloudy 81 27 73 23 79 79 Calm 30.12 1020 10 16.0934 N/A
1:56 pm 13:56 Partly Cloudy 84 29 75 24 74 74 S 5 7 30.09 1019 10 16.0934 N/A
2:16 pm 14:16 Partly Cloudy 84 29 75 24 74 74 ENE 6 9 30.09 1019 10 16.0934 N/A
2:35 pm 14:35 Partly Cloudy 84 29 73 23 70 70 Calm 30.09 1019 10 16.0934 N/A
2:55 pm 14:55 Partly Cloudy 82 28 75 24 79 79 Calm 30.09 1019 10 16.0934 N/A
2:56 pm 14:56 Partly Cloudy 84 29 73 23 70 70 Calm 30.09 1019 10 16.0934 N/A
3:15 pm 15:15 Mostly Cloudy 86 30 77 25 75 75 ESE 6 9 30.09 1019 10 16.0934 N/A
3:16 pm 15:16 Mostly Cloudy 86 30 77 25 75 75 ESE 6 9 30.09 1019 10 16.0934 N/A
3:35 pm 15:35 Mostly Cloudy 86 30 75 24 70 70 SE 6 9 30.09 1019 10 16.0934 N/A
3:55 pm 15:55 Partly Cloudy 84 29 75 24 74 74 ESE 6 9 30.06 1018 10 16.0934 N/A
3:56 pm 15:56 Partly Cloudy 84 29 75 24 74 74 SE 6 9 30.06 1018 10 16.0934 N/A
4:15 pm 16:15 Partly Cloudy 84 29 75 24 74 74 SE 6 9 30.06 1018 10 16.0934 N/A
4:16 pm 16:16 Partly Cloudy 84 29 75 24 74 74 ESE 6 9 30.06 1018 10 16.0934 N/A
4:35 pm 16:35 Partly Cloudy 82 28 75 24 79 79 SE 8 13 30.06 1018 10 16.0934 N/A
4:56 pm 16:56 Sunny 82 28 75 24 79 79 SE 7 11 30.06 1018 10 16.0934 N/A
5:15 pm 17:15 Partly Cloudy 81 27 75 24 84 84 ESE 6 9 30.06 1018 10 16.0934 N/A
5:35 pm 17:35 Partly Cloudy 81 27 75 24 84 84 SSE 5 7 30.06 1018 10 16.0934 N/A
5:55 pm 17:55 Sunny 81 27 75 24 84 84 SE 5 7 30.06 1018 10 16.0934 N/A
5:56 pm 17:56 Sunny 81 27 75 24 84 84 SE 5 7 30.06 1018 10 16.0934 N/A
6:15 pm 18:15 Sunny 81 27 77 25 89 89 Calm 30.03 1017 10 16.0934 N/A
6:35 pm 18:35 Sunny 79 26 75 24 89 89 Calm 30.03 1017 10 16.0934 N/A
6:56 pm 18:56 Sunny 81 27 77 25 89 89 S 7 11 30.03 1017 10 16.0934 N/A
7:15 pm 19:15 Sunny 79 26 75 24 89 89 S 5 7 30.03 1017 10 16.0934 N/A
7:35 pm 19:35 Sunny 79 26 75 24 89 89 SSE 6 9 30.03 1017 10 16.0934 N/A
7:55 pm 19:55 Sunny 79 26 75 24 89 89 Calm 30.03 1017 10 16.0934 N/A
8:15 pm 20:15 Sunny 77 25 77 25 100 100 Calm 30.06 1018 10 16.0934 N/A
8:35 pm 20:35 Clear 77 25 75 24 94 94 Calm 30.06 1018 10 16.0934 N/A
8:55 pm 20:55 Clear 75 24 75 24 100 100 SSE 3 6 30.06 1018 10 16.0934 N/A
8:56 pm 20:56 Clear 75 24 75 24 100 100 SSE 3 6 30.06 1018 10 16.0934 N/A
9:15 pm 21:15 Clear 75 24 75 24 100 100 Calm 30.06 1018 10 16.0934 N/A
9:35 pm 21:35 Clear 75 24 75 24 100 100 Calm 30.06 1018 10 16.0934 N/A
9:56 pm 21:56 Clear 75 24 75 24 100 100 SSE 3 6 30.06 1018 10 16.0934 N/A
10:15 pm 22:15 Clear 75 24 75 24 100 100 S 6 9 30.09 1019 10 16.0934 N/A
10:35 pm 22:35 Clear 73 23 73 23 100 100 S 3 6 30.09 1019 10 16.0934 N/A
10:55 pm 22:55 Clear 73 23 73 23 100 100 S 6 9 30.09 1019 10 16.0934 N/A
11:15 pm 23:15 Clear 73 23 73 23 100 100 S 6 9 30.09 1019 10 16.0934 N/A
11:35 pm 23:35 Partly Cloudy 73 23 73 23 100 100 SSE 8 13 30.09 1019 10 16.0934 N/A
11:36 pm 23:36 Partly Cloudy 73 23 73 23 100 100 SSE 8 13 30.09 1019 10 16.0934 N/A
11:55 pm 23:55 Mostly Cloudy 72 22 72 22 100 100 S 7 11 30.09 1019 10 16.0934 N/A

Powered by AerisWeather